Location: Celina Division
(33.3022°N, 96.7580°W)
Time: 00:59:49
(UTC+00:00)

NOAA 18 - Pass Details

Date: 04 April 2023
Orbit: 838 x 860 km, 98.9° (Epoch: 07 June)

Event Time Altitude Azimuth Distance (km) Brightness Sun altitude
Exits shadow 03:30:04 14° 24° (NNE) 2,224 7.4 -32.3°
Drops below altitude 10° 03:31:04 10° 17° (NNE) 2,501 7.8 -32.5°
Sets 03:33:53 0° 3° (N) 3,441 8.7 -33.0°
